Weather in Prokudskoye

Russia / Novosibirsk Oblast     55°00′35″N   82°27′33″E
temp.,
°C
wind,
m/s
gust,
m/s
humid.,
%
clouds,
%
prec.,
mm/h
press.,
hPa
HPBL,
m
1 march, mon
mon101:00−13se5994100 0.6 1021305
04:00−10se5995100 0.6 1017414
07:00−9ese5995100 2.1 1013398
10:00−7ese6995100 1.7 1010460
13:00−4ene4696100 3.7 1008352
16:00−3nne4596100 0.8 1007324
19:00−6nne4796100 1.4 1007252
22:00−9nne5795100 1.0 1007266
2 march, tue
tue201:00−11nne4696100 1.9 1009263
04:00−13n3596100 0.3 1010137
07:00−15n239795 0.4 101366
10:00−15nnw229680 0.1 101494
13:00−13w239082 0.1 1016295
16:00−11wsw2387100 0.1 1015487
19:00−14wsw1196100 0.1 101620
22:00−14wnw1296100 0.0 101620
3 march, wed
wed301:00−15w1295100 0.1 101522
04:00−16wsw129686 0.1 101620
07:00−16wsw129789 0.2 101720
10:00−15sw229588 0.1 101786
13:00−12sw238987 0.1 1018327
16:00−10ssw3589100 0.1 1018498
19:00−12ssw349398 0.1 102047
22:00−13ssw4109491 0.0 1021249
4 march, thu
thu401:00−17s4119456 0.1 1021212
04:00−15s6129291 0.0 1020375
07:00−11s7139396 0.3 1020553
10:00−8ssw81491100 0.3 1018627
13:00−6ssw81590100 0.6 1017663
16:00−5ssw81593100 0.4 1016696
19:00−4ssw81592100 0.9 1015788
22:00−4ssw81788100 0.1 1014692
5 march, fri
fri501:00−5ssw81785100 0.1 1013569
04:00−5ssw71685100 0.0 1011572
07:00−7s61585100 0.0 1010465
10:00−5ssw71394100 0.3 1009579
13:00−4sw61095100 1.6 1008655
16:000wsw91391100 0.6 10101111
19:00−6wsw7148396 0.6 1016608
22:00−8sw7148754 0.0 1019500